Time,TemperatureF,DewpointF,PressureIn,WindDirection,WindDirectionDegrees,WindSpeedMPH,WindSpeedGustMPH,Humidity,HourlyPrecipIn,Conditions,Clouds,dailyrainin,SoftwareType,DateUTC
2013-06-29 00:02:00,79.0,59.4,30.01,NE,50,6.0,8.0,51,0.00,,,0.00,meteohub,2013-06-29 05:02:00,
2013-06-29 00:07:00,78.6,59.0,30.01,NE,46,4.0,9.0,51,0.00,,,0.00,meteohub,2013-06-29 05:07:00,
2013-06-29 00:12:00,78.4,59.4,30.01,NE,46,6.0,9.0,52,0.00,,,0.00,meteohub,2013-06-29 05:12:00,
2013-06-29 00:17:00,78.4,59.4,30.01,NE,50,6.0,9.0,52,0.00,,,0.00,meteohub,2013-06-29 05:17:00,
2013-06-29 00:21:00,78.4,59.4,30.01,NNE,20,2.0,9.0,52,0.00,,,0.00,meteohub,2013-06-29 05:21:00,
2013-06-29 00:27:00,78.1,59.0,30.01,NE,43,6.0,9.0,52,0.00,,,0.00,meteohub,2013-06-29 05:27:00,
2013-06-29 00:32:00,77.7,59.2,30.01,NE,37,4.0,9.0,53,0.00,,,0.00,meteohub,2013-06-29 05:32:00,
2013-06-29 00:37:00,77.5,59.0,30.01,NNE,20,4.0,8.0,53,0.00,,,0.00,meteohub,2013-06-29 05:37:00,
2013-06-29 00:42:00,77.4,58.8,30.02,ENE,64,3.0,8.0,53,0.00,,,0.00,meteohub,2013-06-29 05:42:00,
2013-06-29 00:47:00,77.2,58.6,30.02,NNE,15,3.0,8.0,53,0.00,,,0.00,meteohub,2013-06-29 05:47:00,
2013-06-29 00:52:00,77.0,59.0,30.02,NNW,340,2.0,7.0,54,0.00,,,0.00,meteohub,2013-06-29 05:52:00,
2013-06-29 00:57:00,76.8,59.0,30.02,North,358,4.0,7.0,54,0.00,,,0.00,meteohub,2013-06-29 05:57:00,
2013-06-29 01:02:00,76.6,59.2,30.02,NNW,332,3.0,6.0,55,0.00,,,0.00,meteohub,2013-06-29 06:02:00,
2013-06-29 01:07:00,76.5,59.5,30.02,NW,304,1.0,6.0,56,0.00,,,0.00,meteohub,2013-06-29 06:07:00,
2013-06-29 01:12:00,76.3,59.4,30.02,NW,309,2.0,6.0,56,0.00,,,0.00,meteohub,2013-06-29 06:12:00,
2013-06-29 01:17:00,75.9,59.2,30.02,NW,304,2.0,5.0,56,0.00,,,0.00,meteohub,2013-06-29 06:17:00,
2013-06-29 01:22:00,75.7,59.4,30.02,NW,311,2.0,4.0,57,0.00,,,0.00,meteohub,2013-06-29 06:22:00,
2013-06-29 01:27:00,75.6,59.7,30.02,NNW,345,2.0,4.0,58,0.00,,,0.00,meteohub,2013-06-29 06:27:00,
2013-06-29 01:32:00,75.4,60.1,30.02,WNW,290,2.0,6.0,59,0.00,,,0.00,meteohub,2013-06-29 06:32:00,
2013-06-29 01:37:00,75.0,60.3,30.02,NW,326,2.0,6.0,60,0.00,,,0.00,meteohub,2013-06-29 06:37:00,
2013-06-29 01:42:00,74.8,60.4,30.02,NW,309,2.0,6.0,61,0.00,,,0.00,meteohub,2013-06-29 06:42:00,
2013-06-29 01:47:00,74.7,60.8,30.02,WNW,295,4.0,5.0,62,0.00,,,0.00,meteohub,2013-06-29 06:47:00,
2013-06-29 01:52:00,74.5,60.6,30.03,WNW,294,3.0,5.0,62,0.00,,,0.00,meteohub,2013-06-29 06:52:00,
2013-06-29 01:57:00,74.1,60.8,30.03,WNW,297,2.0,5.0,63,0.00,,,0.00,meteohub,2013-06-29 06:57:00,
2013-06-29 02:02:00,73.8,60.4,30.03,West,281,2.0,5.0,63,0.00,,,0.00,meteohub,2013-06-29 07:02:00,
2013-06-29 02:07:00,73.6,61.2,30.04,WNW,288,3.0,4.0,65,0.00,,,0.00,meteohub,2013-06-29 07:07:00,
2013-06-29 02:12:00,73.4,61.3,30.03,WNW,290,2.0,3.0,66,0.00,,,0.00,meteohub,2013-06-29 07:12:00,
2013-06-29 02:17:00,73.2,61.2,30.04,WNW,301,3.0,3.0,66,0.00,,,0.00,meteohub,2013-06-29 07:17:00,
2013-06-29 02:22:00,73.0,60.6,30.04,WNW,295,2.0,3.0,65,0.00,,,0.00,meteohub,2013-06-29 07:22:00,
2013-06-29 02:27:00,73.0,60.6,30.04,WNW,292,2.0,3.0,65,0.00,,,0.00,meteohub,2013-06-29 07:27:00,
2013-06-29 02:32:00,73.0,60.1,30.04,WNW,291,3.0,4.0,64,0.00,,,0.00,meteohub,2013-06-29 07:32:00,
2013-06-29 02:37:00,72.9,59.9,30.04,WNW,294,3.0,4.0,64,0.00,,,0.00,meteohub,2013-06-29 07:37:00,
2013-06-29 02:42:00,72.7,59.7,30.04,WNW,297,2.0,4.0,64,0.00,,,0.00,meteohub,2013-06-29 07:42:00,
2013-06-29 02:47:00,72.7,60.3,30.04,WNW,283,2.0,4.0,65,0.00,,,0.00,meteohub,2013-06-29 07:47:00,
2013-06-29 02:52:00,72.5,60.1,30.04,WNW,295,3.0,4.0,65,0.00,,,0.00,meteohub,2013-06-29 07:52:00,
2013-06-29 02:57:00,72.3,60.3,30.04,NW,307,3.0,4.0,66,0.00,,,0.00,meteohub,2013-06-29 07:57:00,
2013-06-29 03:02:00,72.1,60.1,30.04,NW,311,4.0,5.0,66,0.00,,,0.00,meteohub,2013-06-29 08:02:00,
2013-06-29 03:07:00,72.1,60.1,30.04,NW,311,2.0,5.0,66,0.00,,,0.00,meteohub,2013-06-29 08:07:00,
2013-06-29 03:12:00,72.1,59.7,30.04,WNW,295,2.0,6.0,65,0.00,,,0.00,meteohub,2013-06-29 08:12:00,
2013-06-29 03:17:00,72.3,59.9,30.04,NW,309,3.0,6.0,65,0.00,,,0.00,meteohub,2013-06-29 08:17:00,
2013-06-29 03:22:00,72.1,59.7,30.04,NW,315,2.0,5.0,65,0.00,,,0.00,meteohub,2013-06-29 08:22:00,
2013-06-29 03:27:00,72.1,59.7,30.04,WNW,303,2.0,5.0,65,0.00,,,0.00,meteohub,2013-06-29 08:27:00,
2013-06-29 03:32:00,72.0,59.5,30.04,WNW,295,3.0,6.0,65,0.00,,,0.00,meteohub,2013-06-29 08:32:00,
2013-06-29 03:37:00,72.0,59.5,30.04,NW,311,2.0,6.0,65,0.00,,,0.00,meteohub,2013-06-29 08:37:00,
2013-06-29 03:42:00,72.0,59.5,30.04,NW,315,6.0,6.0,65,0.00,,,0.00,meteohub,2013-06-29 08:42:00,
2013-06-29 03:47:00,72.0,59.5,30.04,WNW,297,4.0,7.0,65,0.00,,,0.00,meteohub,2013-06-29 08:47:00,
2013-06-29 03:52:00,71.8,59.4,30.04,WNW,301,3.0,7.0,65,0.00,,,0.00,meteohub,2013-06-29 08:52:00,
2013-06-29 03:57:00,71.8,59.4,30.04,WNW,302,2.0,7.0,65,0.00,,,0.00,meteohub,2013-06-29 08:57:00,
2013-06-29 04:02:00,71.4,59.5,30.04,NNW,340,1.0,6.0,66,0.00,,,0.00,meteohub,2013-06-29 09:02:00,
2013-06-29 04:07:00,71.4,59.0,30.04,NW,319,3.0,6.0,65,0.00,,,0.00,meteohub,2013-06-29 09:07:00,
2013-06-29 04:12:00,71.4,59.5,30.04,NW,309,2.0,6.0,66,0.00,,,0.00,meteohub,2013-06-29 09:12:00,
2013-06-29 04:17:00,71.2,59.4,30.04,NW,308,4.0,6.0,66,0.00,,,0.00,meteohub,2013-06-29 09:17:00,
2013-06-29 04:22:00,71.1,59.5,30.04,NW,306,2.0,6.0,67,0.00,,,0.00,meteohub,2013-06-29 09:22:00,
2013-06-29 04:27:00,70.9,59.7,30.04,NW,304,1.0,6.0,68,0.00,,,0.00,meteohub,2013-06-29 09:27:00,
2013-06-29 04:32:00,70.5,59.4,30.04,NW,311,2.0,4.0,68,0.00,,,0.00,meteohub,2013-06-29 09:32:00,
2013-06-29 04:37:00,70.5,59.4,30.04,NW,311,0.0,4.0,68,0.00,,,0.00,meteohub,2013-06-29 09:37:00,
2013-06-29 04:42:00,70.5,59.9,30.04,WNW,297,1.0,3.0,69,0.00,,,0.00,meteohub,2013-06-29 09:42:00,
2013-06-29 04:47:00,70.3,59.7,30.05,WNW,301,0.0,3.0,69,0.00,,,0.00,meteohub,2013-06-29 09:47:00,
2013-06-29 04:52:00,70.3,59.4,30.05,NW,309,1.0,3.0,68,0.00,,,0.00,meteohub,2013-06-29 09:52:00,
2013-06-29 04:57:00,70.3,59.4,30.05,WNW,297,2.0,3.0,68,0.00,,,0.00,meteohub,2013-06-29 09:57:00,
2013-06-29 05:01:00,70.3,58.8,30.05,NNE,25,2.0,3.0,67,0.00,,,0.00,meteohub,2013-06-29 10:01:00,
2013-06-29 05:06:00,70.3,58.5,30.05,North,351,6.0,6.0,66,0.00,,,0.00,meteohub,2013-06-29 10:06:00,
2013-06-29 05:11:00,70.5,59.0,30.05,NNW,330,3.0,6.0,67,0.00,,,0.00,meteohub,2013-06-29 10:11:00,
2013-06-29 05:17:00,70.3,58.5,30.05,NNW,340,4.0,7.0,66,0.00,,,0.00,meteohub,2013-06-29 10:17:00,
2013-06-29 05:22:00,70.3,58.5,30.05,North,353,4.0,7.0,66,0.00,,,0.00,meteohub,2013-06-29 10:22:00,
2013-06-29 05:27:00,70.2,58.6,30.05,North,357,3.0,7.0,67,0.00,,,0.00,meteohub,2013-06-29 10:27:00,
2013-06-29 05:32:00,70.2,58.6,30.06,WNW,293,3.0,7.0,67,0.00,,,0.00,meteohub,2013-06-29 10:32:00,
2013-06-29 05:37:00,70.2,58.6,30.06,NNE,12,2.0,7.0,67,0.00,,,0.00,meteohub,2013-06-29 10:37:00,
2013-06-29 05:42:00,70.2,58.6,30.06,NW,326,2.0,7.0,67,0.00,,,0.00,meteohub,2013-06-29 10:42:00,
2013-06-29 05:47:00,70.2,58.3,30.06,NNW,332,6.0,7.0,66,0.00,,,0.00,meteohub,2013-06-29 10:47:00,
2013-06-29 05:52:00,70.2,58.6,30.06,NNW,340,6.0,8.0,67,0.00,,,0.00,meteohub,2013-06-29 10:52:00,
2013-06-29 05:57:00,70.0,58.5,30.06,North,359,5.0,9.0,67,0.00,,,0.00,meteohub,2013-06-29 10:57:00,
2013-06-29 06:02:00,70.0,58.5,30.06,NNE,29,6.0,9.0,67,0.00,,,0.00,meteohub,2013-06-29 11:02:00,
2013-06-29 06:07:00,69.8,58.8,30.06,NNW,340,4.0,9.0,68,0.00,,,0.00,meteohub,2013-06-29 11:07:00,
2013-06-29 06:11:00,69.6,58.6,30.06,NNW,337,6.0,9.0,68,0.00,,,0.00,meteohub,2013-06-29 11:11:00,
2013-06-29 06:16:00,69.8,58.8,30.06,NNW,343,5.0,8.0,68,0.00,,,0.00,meteohub,2013-06-29 11:16:00,
2013-06-29 06:21:00,70.0,59.0,30.06,NNE,23,3.0,7.0,68,0.00,,,0.00,meteohub,2013-06-29 11:21:00,
2013-06-29 06:26:00,70.0,59.0,30.06,North,356,5.0,7.0,68,0.00,,,0.00,meteohub,2013-06-29 11:26:00,
2013-06-29 06:31:00,70.2,58.6,30.06,NNW,346,5.0,7.0,67,0.00,,,0.00,meteohub,2013-06-29 11:31:00,
2013-06-29 06:36:00,70.3,58.5,30.06,NE,39,7.0,7.0,66,0.00,,,0.00,meteohub,2013-06-29 11:36:00,
2013-06-29 06:41:00,70.9,58.5,30.06,NNW,332,4.0,8.0,65,0.00,,,0.00,meteohub,2013-06-29 11:41:00,
2013-06-29 06:46:00,71.1,58.3,30.06,North,1,6.0,8.0,64,0.00,,,0.00,meteohub,2013-06-29 11:46:00,
2013-06-29 06:51:00,71.4,58.1,30.06,North,1,3.0,8.0,63,0.00,,,0.00,meteohub,2013-06-29 11:51:00,
2013-06-29 06:57:00,71.6,58.3,30.06,North,351,5.0,8.0,63,0.00,,,0.00,meteohub,2013-06-29 11:57:00,
2013-06-29 07:02:00,71.6,58.3,30.06,NW,314,6.0,8.0,63,0.00,,,0.00,meteohub,2013-06-29 12:02:00,
2013-06-29 07:07:00,71.6,58.3,30.06,NW,318,4.0,8.0,63,0.00,,,0.00,meteohub,2013-06-29 12:07:00,
2013-06-29 07:12:00,71.8,59.0,30.06,NNW,340,4.0,8.0,64,0.00,,,0.00,meteohub,2013-06-29 12:12:00,
2013-06-29 07:17:00,72.0,58.6,30.06,NNW,331,6.0,8.0,63,0.00,,,0.00,meteohub,2013-06-29 12:17:00,
2013-06-29 07:22:00,72.0,58.3,30.06,NNW,332,8.0,9.0,62,0.00,,,0.00,meteohub,2013-06-29 12:22:00,
2013-06-29 07:27:00,72.1,58.5,30.06,NNW,334,5.0,9.0,62,0.00,,,0.00,meteohub,2013-06-29 12:27:00,
2013-06-29 07:32:00,72.5,58.8,30.06,NW,306,4.0,9.0,62,0.00,,,0.00,meteohub,2013-06-29 12:32:00,
2013-06-29 07:37:00,72.7,58.5,30.06,NNW,347,5.0,9.0,61,0.00,,,0.00,meteohub,2013-06-29 12:37:00,
2013-06-29 07:42:00,72.7,58.8,30.06,North,11,6.0,9.0,62,0.00,,,0.00,meteohub,2013-06-29 12:42:00,
2013-06-29 07:47:00,73.0,59.2,30.06,NNW,337,5.0,9.0,62,0.00,,,0.00,meteohub,2013-06-29 12:47:00,
2013-06-29 07:52:00,73.2,59.4,30.06,North,4,5.0,9.0,62,0.00,,,0.00,meteohub,2013-06-29 12:52:00,
2013-06-29 07:57:00,73.6,59.4,30.06,WNW,294,5.0,8.0,61,0.00,,,0.00,meteohub,2013-06-29 12:57:00,
2013-06-29 08:02:00,73.8,59.5,30.06,NW,315,6.0,9.0,61,0.00,,,0.00,meteohub,2013-06-29 13:02:00,
2013-06-29 08:07:00,74.1,59.4,30.07,NW,315,4.0,9.0,60,0.00,,,0.00,meteohub,2013-06-29 13:07:00,
2013-06-29 08:12:00,74.5,59.2,30.07,WNW,290,4.0,9.0,59,0.00,,,0.00,meteohub,2013-06-29 13:12:00,
2013-06-29 08:17:00,74.5,58.8,30.07,NW,322,4.0,9.0,58,0.00,,,0.00,meteohub,2013-06-29 13:17:00,
2013-06-29 08:22:00,74.8,59.0,30.07,NW,316,4.0,9.0,58,0.00,,,0.00,meteohub,2013-06-29 13:22:00,
2013-06-29 08:27:00,75.4,59.5,30.07,WNW,288,6.0,9.0,58,0.00,,,0.00,meteohub,2013-06-29 13:27:00,
2013-06-29 08:32:00,75.4,59.0,30.08,NW,314,6.0,9.0,57,0.00,,,0.00,meteohub,2013-06-29 13:32:00,
2013-06-29 08:37:00,75.6,59.7,30.08,WNW,298,7.0,10.0,58,0.00,,,0.00,meteohub,2013-06-29 13:37:00,
2013-06-29 08:42:00,75.6,58.8,30.08,WNW,301,6.0,10.0,56,0.00,,,0.00,meteohub,2013-06-29 13:42:00,
2013-06-29 08:47:00,76.1,59.7,30.08,WNW,301,3.0,11.0,57,0.00,,,0.00,meteohub,2013-06-29 13:47:00,
2013-06-29 08:52:00,76.5,59.2,30.08,WNW,290,8.0,11.0,55,0.00,,,0.00,meteohub,2013-06-29 13:52:00,
2013-06-29 08:57:00,76.5,59.2,30.08,WNW,299,4.0,10.0,55,0.00,,,0.00,meteohub,2013-06-29 13:57:00,
2013-06-29 09:02:00,76.8,59.4,30.08,NW,314,8.0,10.0,55,0.00,,,0.00,meteohub,2013-06-29 14:02:00,
2013-06-29 09:07:00,77.2,59.7,30.08,WNW,298,7.0,11.0,55,0.00,,,0.00,meteohub,2013-06-29 14:07:00,
2013-06-29 09:12:00,77.7,59.7,30.08,WNW,285,5.0,11.0,54,0.00,,,0.00,meteohub,2013-06-29 14:12:00,
2013-06-29 09:17:00,77.9,59.9,30.08,WNW,288,6.0,11.0,54,0.00,,,0.00,meteohub,2013-06-29 14:17:00,
2013-06-29 09:22:00,78.1,59.5,30.08,WNW,295,5.0,11.0,53,0.00,,,0.00,meteohub,2013-06-29 14:22:00,
2013-06-29 09:27:00,78.4,59.9,30.07,West,280,5.0,11.0,53,0.00,,,0.00,meteohub,2013-06-29 14:27:00,
2013-06-29 09:32:00,78.6,59.5,30.07,WNW,284,8.0,9.0,52,0.00,,,0.00,meteohub,2013-06-29 14:32:00,
2013-06-29 09:37:00,78.8,59.2,30.07,NW,305,9.0,12.0,51,0.00,,,0.00,meteohub,2013-06-29 14:37:00,
2013-06-29 09:41:00,79.2,59.0,30.07,WNW,290,5.0,12.0,50,0.00,,,0.00,meteohub,2013-06-29 14:41:00,
2013-06-29 09:46:00,79.5,59.7,30.07,WNW,293,6.0,12.0,51,0.00,,,0.00,meteohub,2013-06-29 14:46:00,
2013-06-29 09:51:00,79.7,59.4,30.07,WNW,293,10.0,12.0,50,0.00,,,0.00,meteohub,2013-06-29 14:51:00,
2013-06-29 09:57:00,79.9,58.5,30.06,West,263,7.0,13.0,48,0.00,,,0.00,meteohub,2013-06-29 14:57:00,
2013-06-29 10:02:00,80.1,57.4,30.07,WNW,288,7.0,13.0,46,0.00,,,0.00,meteohub,2013-06-29 15:02:00,
2013-06-29 10:07:00,80.2,57.6,30.06,WNW,294,11.0,15.0,46,0.00,,,0.00,meteohub,2013-06-29 15:07:00,
2013-06-29 10:12:00,80.2,59.4,30.06,NW,318,5.0,15.0,49,0.00,,,0.00,meteohub,2013-06-29 15:12:00,
2013-06-29 10:17:00,80.8,58.6,30.06,NW,319,5.0,15.0,47,0.00,,,0.00,meteohub,2013-06-29 15:17:00,
2013-06-29 10:22:00,81.1,58.5,30.06,NW,311,8.0,13.0,46,0.00,,,0.00,meteohub,2013-06-29 15:22:00,
2013-06-29 10:27:00,81.5,58.1,30.06,NW,312,6.0,13.0,45,0.00,,,0.00,meteohub,2013-06-29 15:27:00,
2013-06-29 10:32:00,81.7,55.8,30.06,NNE,25,14.0,19.0,41,0.00,,,0.00,meteohub,2013-06-29 15:32:00,
2013-06-29 10:37:00,81.9,56.5,30.06,NW,310,4.0,21.0,42,0.00,,,0.00,meteohub,2013-06-29 15:37:00,
2013-06-29 10:42:00,82.4,57.0,30.06,NW,304,6.0,21.0,42,0.00,,,0.00,meteohub,2013-06-29 15:42:00,
2013-06-29 10:47:00,82.2,56.1,30.06,NW,305,14.0,21.0,41,0.00,,,0.00,meteohub,2013-06-29 15:47:00,
2013-06-29 10:52:00,82.2,56.1,30.06,NW,322,10.0,19.0,41,0.00,,,0.00,meteohub,2013-06-29 15:52:00,
2013-06-29 10:57:00,82.8,57.4,30.06,ENE,64,4.0,19.0,42,0.00,,,0.00,meteohub,2013-06-29 15:57:00,
2013-06-29 11:02:00,82.9,57.6,30.05,North,8,9.0,17.0,42,0.00,,,0.00,meteohub,2013-06-29 16:02:00,
2013-06-29 11:07:00,82.4,57.0,30.05,WNW,295,6.0,14.0,42,0.00,,,0.00,meteohub,2013-06-29 16:07:00,
2013-06-29 11:12:00,83.1,57.0,30.05,NW,315,7.0,15.0,41,0.00,,,0.00,meteohub,2013-06-29 16:12:00,
2013-06-29 11:17:00,83.5,54.5,30.06,WNW,298,11.0,17.0,37,0.00,,,0.00,meteohub,2013-06-29 16:17:00,
2013-06-29 11:22:00,83.1,54.9,30.05,NW,321,16.0,20.0,38,0.00,,,0.00,meteohub,2013-06-29 16:22:00,
2013-06-29 11:27:00,83.1,54.9,30.05,North,354,13.0,20.0,38,0.00,,,0.00,meteohub,2013-06-29 16:27:00,
2013-06-29 11:32:00,82.8,55.9,30.05,NE,56,14.0,20.0,40,0.00,,,0.00,meteohub,2013-06-29 16:32:00,
2013-06-29 11:37:00,83.5,57.4,30.05,NNW,334,9.0,20.0,41,0.00,,,0.00,meteohub,2013-06-29 16:37:00,
2013-06-29 11:42:00,83.5,55.2,30.05,NW,304,8.0,18.0,38,0.00,,,0.00,meteohub,2013-06-29 16:42:00,
2013-06-29 11:47:00,84.4,55.2,30.05,North,11,12.0,21.0,37,0.00,,,0.00,meteohub,2013-06-29 16:47:00,
2013-06-29 11:52:00,84.6,55.4,30.04,WNW,300,10.0,21.0,37,0.00,,,0.00,meteohub,2013-06-29 16:52:00,
2013-06-29 11:57:00,84.4,54.5,30.04,NW,322,12.0,22.0,36,0.00,,,0.00,meteohub,2013-06-29 16:57:00,
2013-06-29 12:02:00,84.4,55.2,30.04,NNW,346,6.0,22.0,37,0.00,,,0.00,meteohub,2013-06-29 17:02:00,
2013-06-29 12:07:00,84.7,55.6,30.04,North,359,8.0,22.0,37,0.00,,,0.00,meteohub,2013-06-29 17:07:00,
2013-06-29 12:12:00,84.6,54.7,30.04,NNW,329,11.0,27.0,36,0.00,,,0.00,meteohub,2013-06-29 17:12:00,
2013-06-29 12:17:00,84.7,54.1,30.04,NW,315,18.0,27.0,35,0.00,,,0.00,meteohub,2013-06-29 17:17:00,
2013-06-29 12:22:00,84.7,54.1,30.04,NW,325,13.0,27.0,35,0.00,,,0.00,meteohub,2013-06-29 17:22:00,
2013-06-29 12:27:00,84.9,54.1,30.04,NNE,12,13.0,27.0,35,0.00,,,0.00,meteohub,2013-06-29 17:27:00,
2013-06-29 12:32:00,84.9,53.4,30.04,NNW,347,12.0,24.0,34,0.00,,,0.00,meteohub,2013-06-29 17:32:00,
2013-06-29 12:37:00,85.3,52.9,30.04,NW,307,11.0,26.0,33,0.00,,,0.00,meteohub,2013-06-29 17:37:00,
2013-06-29 12:42:00,85.1,53.6,30.04,NE,49,6.0,26.0,34,0.00,,,0.00,meteohub,2013-06-29 17:42:00,
2013-06-29 12:47:00,85.6,53.2,30.04,NW,311,15.0,26.0,33,0.00,,,0.00,meteohub,2013-06-29 17:47:00,
2013-06-29 12:52:00,85.5,52.2,30.03,NW,310,9.0,21.0,32,0.00,,,0.00,meteohub,2013-06-29 17:52:00,
2013-06-29 12:57:00,85.3,52.9,30.03,NW,318,19.0,24.0,33,0.00,,,0.00,meteohub,2013-06-29 17:57:00,
2013-06-29 13:02:00,85.6,54.9,30.03,NW,319,8.0,24.0,35,0.00,,,0.00,meteohub,2013-06-29 18:02:00,
2013-06-29 13:07:00,85.6,53.2,30.03,WNW,293,15.0,24.0,33,0.00,,,0.00,meteohub,2013-06-29 18:07:00,
2013-06-29 13:12:00,86.2,53.8,30.03,North,357,17.0,23.0,33,0.00,,,0.00,meteohub,2013-06-29 18:12:00,
2013-06-29 13:17:00,85.6,54.0,30.03,NNW,337,12.0,24.0,34,0.00,,,0.00,meteohub,2013-06-29 18:17:00,
2013-06-29 13:22:00,86.2,53.8,30.03,WNW,290,14.0,24.0,33,0.00,,,0.00,meteohub,2013-06-29 18:22:00,
2013-06-29 13:27:00,85.8,53.4,30.02,NW,324,15.0,24.0,33,0.00,,,0.00,meteohub,2013-06-29 18:27:00,
2013-06-29 13:32:00,85.8,53.4,30.02,NW,316,8.0,23.0,33,0.00,,,0.00,meteohub,2013-06-29 18:32:00,
2013-06-29 13:37:00,86.2,53.8,30.02,NW,304,15.0,23.0,33,0.00,,,0.00,meteohub,2013-06-29 18:37:00,
2013-06-29 13:42:00,86.4,54.7,30.02,NW,308,15.0,26.0,34,0.00,,,0.00,meteohub,2013-06-29 18:42:00,
2013-06-29 13:47:00,86.7,54.1,30.02,WNW,290,14.0,26.0,33,0.00,,,0.00,meteohub,2013-06-29 18:47:00,
2013-06-29 13:52:00,86.7,54.1,30.01,WNW,303,7.0,26.0,33,0.00,,,0.00,meteohub,2013-06-29 18:52:00,
2013-06-29 13:57:00,86.5,54.0,30.01,NNW,328,7.0,27.0,33,0.00,,,0.00,meteohub,2013-06-29 18:57:00,
2013-06-29 14:02:00,86.7,53.4,30.01,NW,323,12.0,27.0,32,0.00,,,0.00,meteohub,2013-06-29 19:02:00,
2013-06-29 14:07:00,86.5,54.0,30.01,NNW,327,14.0,27.0,33,0.00,,,0.00,meteohub,2013-06-29 19:07:00,
2013-06-29 14:12:00,86.5,54.0,30.01,WNW,290,18.0,25.0,33,0.00,,,0.00,meteohub,2013-06-29 19:12:00,
2013-06-29 14:17:00,86.9,54.3,30.01,North,349,19.0,23.0,33,0.00,,,0.00,meteohub,2013-06-29 19:17:00,
2013-06-29 14:22:00,87.3,54.7,30.01,NW,320,12.0,28.0,33,0.00,,,0.00,meteohub,2013-06-29 19:22:00,
2013-06-29 14:27:00,87.3,54.7,30.01,NNW,329,13.0,28.0,33,0.00,,,0.00,meteohub,2013-06-29 19:27:00,
2013-06-29 14:32:00,87.1,53.6,30.00,NW,305,9.0,28.0,32,0.00,,,0.00,meteohub,2013-06-29 19:32:00,
2013-06-29 14:37:00,87.3,54.7,30.00,NW,308,8.0,23.0,33,0.00,,,0.00,meteohub,2013-06-29 19:37:00,
2013-06-29 14:42:00,87.1,54.5,30.00,WNW,293,16.0,25.0,33,0.00,,,0.00,meteohub,2013-06-29 19:42:00,
2013-06-29 14:47:00,87.1,55.2,30.00,WNW,298,23.0,25.0,34,0.00,,,0.00,meteohub,2013-06-29 19:47:00,
2013-06-29 14:52:00,86.9,55.2,30.00,WNW,301,15.0,25.0,34,0.00,,,0.00,meteohub,2013-06-29 19:52:00,
2013-06-29 14:57:00,86.5,54.9,29.99,NNE,18,7.0,29.0,34,0.00,,,0.00,meteohub,2013-06-29 19:57:00,
2013-06-29 15:02:00,87.1,54.5,30.00,NNE,32,16.0,29.0,33,0.00,,,0.00,meteohub,2013-06-29 20:02:00,
2013-06-29 15:07:00,87.3,55.4,29.99,North,357,11.0,29.0,34,0.00,,,0.00,meteohub,2013-06-29 20:07:00,
2013-06-29 15:12:00,87.6,56.7,29.99,WNW,295,4.0,24.0,35,0.00,,,0.00,meteohub,2013-06-29 20:12:00,
2013-06-29 15:17:00,88.0,55.2,29.99,West,277,12.0,20.0,33,0.00,,,0.00,meteohub,2013-06-29 20:17:00,
2013-06-29 15:22:00,87.6,55.0,29.99,NNW,344,18.0,27.0,33,0.00,,,0.00,meteohub,2013-06-29 20:22:00,
2013-06-29 15:28:00,87.8,55.0,29.99,NW,313,15.0,27.0,33,0.00,,,0.00,meteohub,2013-06-29 20:28:00,
2013-06-29 15:33:00,87.4,54.9,29.99,NW,324,13.0,27.0,33,0.00,,,0.00,meteohub,2013-06-29 20:33:00,
2013-06-29 15:38:00,87.4,54.9,29.99,NW,312,10.0,24.0,33,0.00,,,0.00,meteohub,2013-06-29 20:38:00,
2013-06-29 15:43:00,88.0,54.5,29.99,WNW,300,13.0,26.0,32,0.00,,,0.00,meteohub,2013-06-29 20:43:00,
2013-06-29 15:48:00,87.8,55.0,29.98,WNW,283,15.0,26.0,33,0.00,,,0.00,meteohub,2013-06-29 20:48:00,
2013-06-29 15:53:00,88.2,54.5,29.98,North,354,18.0,26.0,32,0.00,,,0.00,meteohub,2013-06-29 20:53:00,
2013-06-29 15:58:00,88.0,53.6,29.98,North,11,19.0,27.0,31,0.00,,,0.00,meteohub,2013-06-29 20:58:00,
2013-06-29 16:03:00,88.0,54.5,29.98,WNW,301,20.0,27.0,32,0.00,,,0.00,meteohub,2013-06-29 21:03:00,
2013-06-29 16:08:00,88.2,54.5,29.98,WSW,252,8.0,29.0,32,0.00,,,0.00,meteohub,2013-06-29 21:08:00,
2013-06-29 16:13:00,88.2,52.9,29.98,WNW,301,16.0,29.0,30,0.00,,,0.00,meteohub,2013-06-29 21:13:00,
2013-06-29 16:18:00,88.2,53.8,29.98,NNW,343,16.0,27.0,31,0.00,,,0.00,meteohub,2013-06-29 21:18:00,
2013-06-29 16:23:00,88.3,53.8,29.97,WNW,294,19.0,25.0,31,0.00,,,0.00,meteohub,2013-06-29 21:23:00,
2013-06-29 16:28:00,88.2,52.9,29.97,NW,325,22.0,32.0,30,0.00,,,0.00,meteohub,2013-06-29 21:28:00,
2013-06-29 16:33:00,88.2,52.9,29.97,WNW,301,13.0,32.0,30,0.00,,,0.00,meteohub,2013-06-29 21:33:00,
2013-06-29 16:38:00,88.2,52.9,29.97,NNE,13,17.0,32.0,30,0.00,,,0.00,meteohub,2013-06-29 21:38:00,
2013-06-29 16:43:00,88.7,54.1,29.97,NW,326,10.0,27.0,31,0.00,,,0.00,meteohub,2013-06-29 21:43:00,
2013-06-29 16:48:00,88.5,53.1,29.97,WNW,300,9.0,26.0,30,0.00,,,0.00,meteohub,2013-06-29 21:48:00,
2013-06-29 16:53:00,88.7,53.2,29.96,NW,316,9.0,22.0,30,0.00,,,0.00,meteohub,2013-06-29 21:53:00,
2013-06-29 16:58:00,88.5,53.1,29.96,NW,316,13.0,25.0,30,0.00,,,0.00,meteohub,2013-06-29 21:58:00,
2013-06-29 17:03:00,88.5,53.1,29.96,WNW,290,16.0,25.0,30,0.00,,,0.00,meteohub,2013-06-29 22:03:00,
2013-06-29 17:08:00,88.5,53.1,29.96,NW,304,12.0,25.0,30,0.00,,,0.00,meteohub,2013-06-29 22:08:00,
2013-06-29 17:13:00,88.2,52.9,29.96,WNW,298,18.0,27.0,30,0.00,,,0.00,meteohub,2013-06-29 22:13:00,
2013-06-29 17:18:00,88.3,53.1,29.96,NW,306,13.0,28.0,30,0.00,,,0.00,meteohub,2013-06-29 22:18:00,
2013-06-29 17:23:00,88.0,53.6,29.96,NW,312,21.0,28.0,31,0.00,,,0.00,meteohub,2013-06-29 22:23:00,
2013-06-29 17:28:00,88.3,53.8,29.96,NW,313,16.0,28.0,31,0.00,,,0.00,meteohub,2013-06-29 22:28:00,
2013-06-29 17:33:00,88.0,52.7,29.96,WNW,290,22.0,27.0,30,0.00,,,0.00,meteohub,2013-06-29 22:33:00,
2013-06-29 17:38:00,88.2,53.8,29.96,WNW,301,13.0,27.0,31,0.00,,,0.00,meteohub,2013-06-29 22:38:00,
2013-06-29 17:43:00,88.2,52.0,29.96,NW,315,12.0,27.0,29,0.00,,,0.00,meteohub,2013-06-29 22:43:00,
2013-06-29 17:48:00,88.0,51.8,29.95,NNW,331,20.0,26.0,29,0.00,,,0.00,meteohub,2013-06-29 22:48:00,
2013-06-29 17:53:00,88.0,52.7,29.96,WNW,298,17.0,24.0,30,0.00,,,0.00,meteohub,2013-06-29 22:53:00,
2013-06-29 17:58:00,87.8,51.6,29.95,NW,322,14.0,26.0,29,0.00,,,0.00,meteohub,2013-06-29 22:58:00,
2013-06-29 18:03:00,87.6,51.4,29.95,NE,39,18.0,26.0,29,0.00,,,0.00,meteohub,2013-06-29 23:03:00,
2013-06-29 18:08:00,87.6,52.3,29.95,NNW,346,20.0,26.0,30,0.00,,,0.00,meteohub,2013-06-29 23:08:00,
2013-06-29 18:14:00,87.4,52.2,29.95,NNW,328,16.0,26.0,30,0.00,,,0.00,meteohub,2013-06-29 23:14:00,
2013-06-29 18:19:00,87.4,52.2,29.94,NNW,329,14.0,24.0,30,0.00,,,0.00,meteohub,2013-06-29 23:19:00,
2013-06-29 18:24:00,87.3,52.0,29.95,NW,312,9.0,29.0,30,0.00,,,0.00,meteohub,2013-06-29 23:24:00,
2013-06-29 18:29:00,87.4,51.3,29.94,NNE,12,13.0,29.0,29,0.00,,,0.00,meteohub,2013-06-29 23:29:00,
2013-06-29 18:34:00,87.3,51.1,29.94,NNW,332,13.0,29.0,29,0.00,,,0.00,meteohub,2013-06-29 23:34:00,
2013-06-29 18:39:00,87.1,51.8,29.95,NW,326,16.0,26.0,30,0.00,,,0.00,meteohub,2013-06-29 23:39:00,
2013-06-29 18:44:00,87.1,51.8,29.95,North,353,7.0,23.0,30,0.00,,,0.00,meteohub,2013-06-29 23:44:00,
2013-06-29 18:49:00,87.1,51.8,29.95,NW,322,13.0,23.0,30,0.00,,,0.00,meteohub,2013-06-29 23:49:00,
2013-06-29 18:54:00,86.7,51.6,29.95,NNW,334,18.0,25.0,30,0.00,,,0.00,meteohub,2013-06-29 23:54:00,
2013-06-29 18:59:00,86.7,51.6,29.95,North,351,17.0,25.0,30,0.00,,,0.00,meteohub,2013-06-29 23:59:00,
2013-06-29 19:04:00,86.4,51.3,29.95,NNE,23,16.0,24.0,30,0.00,,,0.00,meteohub,2013-06-30 00:04:00,
2013-06-29 19:09:00,86.4,52.2,29.95,NNE,13,11.0,25.0,31,0.00,,,0.00,meteohub,2013-06-30 00:09:00,
2013-06-29 19:14:00,86.4,52.2,29.96,NNE,13,11.0,25.0,31,0.00,,,0.00,meteohub,2013-06-30 00:14:00,
2013-06-29 19:19:00,86.2,51.1,29.96,NNW,346,16.0,25.0,30,0.00,,,0.00,meteohub,2013-06-30 00:19:00,
2013-06-29 19:24:00,86.0,50.9,29.96,NNE,32,11.0,22.0,30,0.00,,,0.00,meteohub,2013-06-30 00:24:00,
2013-06-29 19:29:00,85.8,50.7,29.96,NE,46,18.0,24.0,30,0.00,,,0.00,meteohub,2013-06-30 00:29:00,
2013-06-29 19:34:00,85.6,50.7,29.96,NNW,334,10.0,24.0,30,0.00,,,0.00,meteohub,2013-06-30 00:34:00,
2013-06-29 19:39:00,85.5,50.5,29.96,North,11,15.0,24.0,30,0.00,,,0.00,meteohub,2013-06-30 00:39:00,
2013-06-29 19:44:00,85.3,50.4,29.96,NNW,328,9.0,24.0,30,0.00,,,0.00,meteohub,2013-06-30 00:44:00,
2013-06-29 19:49:00,85.3,50.4,29.96,NNE,18,7.0,22.0,30,0.00,,,0.00,meteohub,2013-06-30 00:49:00,
2013-06-29 19:54:00,85.1,50.2,29.96,NNE,32,15.0,22.0,30,0.00,,,0.00,meteohub,2013-06-30 00:54:00,
2013-06-29 19:59:00,84.7,50.7,29.96,NNE,20,11.0,22.0,31,0.00,,,0.00,meteohub,2013-06-30 00:59:00,
2013-06-29 20:04:00,84.6,50.5,29.96,NNE,18,14.0,22.0,31,0.00,,,0.00,meteohub,2013-06-30 01:04:00,
2013-06-29 20:09:00,84.2,50.4,29.97,NE,46,13.0,24.0,31,0.00,,,0.00,meteohub,2013-06-30 01:09:00,
2013-06-29 20:14:00,83.8,50.0,29.97,NE,47,11.0,24.0,31,0.00,,,0.00,meteohub,2013-06-30 01:14:00,
2013-06-29 20:19:00,83.7,50.7,29.97,NE,37,10.0,24.0,32,0.00,,,0.00,meteohub,2013-06-30 01:19:00,
2013-06-29 20:24:00,83.5,49.6,29.97,NNE,18,10.0,22.0,31,0.00,,,0.00,meteohub,2013-06-30 01:24:00,
2013-06-29 20:29:00,83.1,49.3,29.97,NE,40,14.0,20.0,31,0.00,,,0.00,meteohub,2013-06-30 01:29:00,
2013-06-29 20:34:00,82.9,49.3,29.98,NNE,13,15.0,20.0,31,0.00,,,0.00,meteohub,2013-06-30 01:34:00,
2013-06-29 20:39:00,82.8,49.1,29.98,NE,50,15.0,20.0,31,0.00,,,0.00,meteohub,2013-06-30 01:39:00,
2013-06-29 20:44:00,82.4,48.7,29.98,North,354,15.0,20.0,31,0.00,,,0.00,meteohub,2013-06-30 01:44:00,
2013-06-29 20:49:00,82.0,49.3,29.98,NE,54,10.0,20.0,32,0.00,,,0.00,meteohub,2013-06-30 01:49:00,
2013-06-29 20:54:00,81.9,49.1,29.98,NNE,23,5.0,20.0,32,0.00,,,0.00,meteohub,2013-06-30 01:54:00,
2013-06-29 20:59:00,81.7,48.9,29.98,NE,36,11.0,17.0,32,0.00,,,0.00,meteohub,2013-06-30 01:59:00,
2013-06-29 21:04:00,81.3,48.6,29.98,NE,40,7.0,17.0,32,0.00,,,0.00,meteohub,2013-06-30 02:04:00,
2013-06-29 21:09:00,81.0,49.1,29.98,NNE,29,6.0,17.0,33,0.00,,,0.00,meteohub,2013-06-30 02:09:00,
2013-06-29 21:14:00,80.8,48.9,29.98,NNE,18,8.0,17.0,33,0.00,,,0.00,meteohub,2013-06-30 02:14:00,
2013-06-29 21:19:00,80.4,48.7,29.99,NNW,345,5.0,12.0,33,0.00,,,0.00,meteohub,2013-06-30 02:19:00,
2013-06-29 21:24:00,80.2,48.6,29.99,NW,315,8.0,12.0,33,0.00,,,0.00,meteohub,2013-06-30 02:24:00,
2013-06-29 21:29:00,80.2,49.3,29.99,NNE,29,8.0,15.0,34,0.00,,,0.00,meteohub,2013-06-30 02:29:00,
2013-06-29 21:34:00,80.1,49.1,30.00,NW,320,5.0,15.0,34,0.00,,,0.00,meteohub,2013-06-30 02:34:00,
2013-06-29 21:40:00,79.9,49.8,30.00,North,350,7.0,15.0,35,0.00,,,0.00,meteohub,2013-06-30 02:40:00,
2013-06-29 21:45:00,79.5,49.5,30.00,NW,315,6.0,14.0,35,0.00,,,0.00,meteohub,2013-06-30 02:45:00,
2013-06-29 21:50:00,79.3,50.0,30.00,WNW,298,7.0,12.0,36,0.00,,,0.00,meteohub,2013-06-30 02:50:00,
2013-06-29 21:55:00,79.2,49.8,30.01,NNW,343,8.0,11.0,36,0.00,,,0.00,meteohub,2013-06-30 02:55:00,
2013-06-29 22:00:00,78.8,50.4,30.01,NW,323,5.0,9.0,37,0.00,,,0.00,meteohub,2013-06-30 03:00:00,
2013-06-29 22:05:00,78.6,50.2,30.01,NW,326,4.0,9.0,37,0.00,,,0.00,meteohub,2013-06-30 03:05:00,
2013-06-29 22:10:00,78.4,50.7,30.01,NNW,337,10.0,10.0,38,0.00,,,0.00,meteohub,2013-06-30 03:10:00,
2013-06-29 22:15:00,78.3,50.5,30.01,NW,326,6.0,10.0,38,0.00,,,0.00,meteohub,2013-06-30 03:15:00,
2013-06-29 22:20:00,78.3,50.5,30.01,NE,44,4.0,10.0,38,0.00,,,0.00,meteohub,2013-06-30 03:20:00,
2013-06-29 22:25:00,78.1,50.4,30.02,North,5,5.0,14.0,38,0.00,,,0.00,meteohub,2013-06-30 03:25:00,
2013-06-29 22:30:00,78.1,50.4,30.02,NE,49,6.0,14.0,38,0.00,,,0.00,meteohub,2013-06-30 03:30:00,
2013-06-29 22:35:00,77.7,50.7,30.02,NNW,337,7.0,14.0,39,0.00,,,0.00,meteohub,2013-06-30 03:35:00,
2013-06-29 22:40:00,77.5,50.5,30.02,NE,40,3.0,10.0,39,0.00,,,0.00,meteohub,2013-06-30 03:40:00,
2013-06-29 22:45:00,77.2,51.1,30.03,NE,46,10.0,10.0,40,0.00,,,0.00,meteohub,2013-06-30 03:45:00,
2013-06-29 22:50:00,77.0,50.9,30.03,NNE,26,4.0,11.0,40,0.00,,,0.00,meteohub,2013-06-30 03:50:00,
2013-06-29 22:55:00,76.8,50.7,30.03,NE,34,8.0,11.0,40,0.00,,,0.00,meteohub,2013-06-30 03:55:00,
2013-06-29 23:00:00,76.8,50.7,30.02,NW,321,3.0,12.0,40,0.00,,,0.00,meteohub,2013-06-30 04:00:00,
2013-06-29 23:01:00,76.8,50.7,30.02,NNE,29,4.0,12.0,40,0.00,,,0.00,meteohub,2013-06-30 04:01:00,
2013-06-29 23:02:00,76.8,50.7,30.02,NE,46,8.0,12.0,40,0.00,,,0.00,meteohub,2013-06-30 04:02:00,
2013-06-29 23:07:00,76.6,51.3,30.02,NE,46,8.0,10.0,41,0.00,,,0.00,meteohub,2013-06-30 04:07:00,
2013-06-29 23:12:00,76.3,50.9,30.03,ENE,57,9.0,11.0,41,0.00,,,0.00,meteohub,2013-06-30 04:12:00,
2013-06-29 23:17:00,76.3,50.9,30.02,NE,50,12.0,14.0,41,0.00,,,0.00,meteohub,2013-06-30 04:17:00,
2013-06-29 23:22:00,76.3,50.9,30.02,NE,41,11.0,14.0,41,0.00,,,0.00,meteohub,2013-06-30 04:22:00,
2013-06-29 23:27:00,76.1,50.7,30.03,NE,44,7.0,14.0,41,0.00,,,0.00,meteohub,2013-06-30 04:27:00,
2013-06-29 23:32:00,75.9,51.3,30.03,NNE,32,6.0,15.0,42,0.00,,,0.00,meteohub,2013-06-30 04:32:00,
2013-06-29 23:37:00,75.7,51.1,30.03,NNE,32,6.0,14.0,42,0.00,,,0.00,meteohub,2013-06-30 04:37:00,
2013-06-29 23:42:00,75.6,50.9,30.02,NE,34,6.0,11.0,42,0.00,,,0.00,meteohub,2013-06-30 04:42:00,
2013-06-29 23:47:00,75.2,51.1,30.03,NE,46,4.0,10.0,43,0.00,,,0.00,meteohub,2013-06-30 04:47:00,
2013-06-29 23:52:00,74.8,51.4,30.03,NNE,13,6.0,10.0,44,0.00,,,0.00,meteohub,2013-06-30 04:52:00,
2013-06-29 23:57:00,74.7,51.3,30.03,NW,322,6.0,10.0,44,0.00,,,0.00,meteohub,2013-06-30 04:57:00,